Temperature
-1 -1 -1 -1 -0 -1 -1 -1 -0 0 -0 1 1 -0 0 0 0 0 0 0 0 -0 -0 -0 -0 -0 -0 -0 0 -0 0 -0 -0 -0 0 0 1 1 1 1 1 1 0 0
-1 -1 -1 -1 -0 -1 -1 -0 -1 -0 0 1 1 0 -0 -0 -0 -0 -0 -0 -0 -0 -0 -1 -1 -1 -1 -1 -1 -0 -0 -0 -0 -0 -0 -0 -0 0 0 0 0 0 -0 -0
-1 -2 -1 -0 -0 -0 -1 -1 -1 -0 1 0 -0 -1 -1 -0 -0 -0 -0 -0 -0 -1 -1 -1 -1 -1 -1 -1 -1 -1 -1 -1 -1 -1 -1 -1 -1 -1 -0 -0 -0 -0 -0 -0
-3 -2 -0 1 -0 -0 -1 -1 -1 -1 -1 -1 -1 -0 0 0 -0 -0 -0 -0 -1 -1 -1 -1 -1 -1 -1 -1 -1 -1 -1 -1 -1 -1 -1 -1 -1 -1 -1 -1 -1 -1 -1 -1
-3 -2 -1 0 -0 -1 -2 -1 -1 -1 -1 -1 -1 -1 -0 1 0 -0 -0 -1 -1 -1 -1 -1 -1 -2 -2 -2 -2 -2 -2 -2 -2 -2 -2 -2 -2 -2 -2 -2 -1 -1 -1 -2
-4 -2 -1 1 -1 -1 -1 -1 -1 -1 -2 -2 -2 -2 -1 0 -0 -1 -1 -1 -1 -1 -2 -2 -2 -2 -2 -2 -2 -2 -2 -2 -2 -2 -2 -2 -2 -2 -2 -2 -2 -2 -2 -2
-3 -3 -2 -1 -2 -1 -0 0 -0 -1 -1 -2 -3 -2 -1 -1 -1 -1 -1 -1 -2 -2 -2 -2 -2 -2 -2 -2 -2 -2 -3 -3 -3 -3 -3 -3 -3 -3 -3 -3 -3 -3 -3 -3
-4 -3 -1 -1 -2 -1 -1 -0 -0 -0 -1 -1 -1 -1 -1 -1 -1 -2 -2 -2 -2 -2 -2 -2 -2 -2 -2 -3 -3 -3 -3 -3 -3 -3 -3 -3 -3 -3 -3 -3 -3 -3 -3 -3
-3 -1 -1 -1 -1 -0 -0 -1 -0 -1 -1 -1 -1 -2 -2 -2 -2 -2 -2 -2 -3 -3 -3 -3 -3 -3 -3 -3 -3 -3 -3 -3 -3 -3 -3 -3 -3 -3 -3 -3 -4 -4 -4 -4
-4 -3 -2 -1 -0 0 -0 -0 -0 -1 -1 -1 -2 -2 -2 -2 -2 -2 -3 -3 -3 -3 -3 -3 -3 -3 -3 -3 -3 -3 -3 -3 -4 -4 -4 -4 -4 -4 -4 -4 -4 -4 -4 -4
-4 -4 -3 -1 -0 0 -0 -1 -1 -1 -1 -2 -2 -2 -2 -2 -2 -3 -3 -3 -3 -4 -3 -3 -3 -3 -4 -4 -4 -4 -4 -4 -4 -4 -4 -4 -4 -4 -5 -5 -5 -5 -5 -5
-2 -2 -3 -1 0 -0 -1 -1 -1 -2 -2 -2 -2 -2 -2 -2 -3 -3 -3 -3 -4 -4 -4 -4 -4 -4 -4 -4 -4 -4 -4 -4 -4 -4 -4 -4 -4 -4 -5 -5 -5 -5 -4 -5
-1 -1 -1 -1 -1 -1 -1 -2 -2 -2 -2 -2 -2 -3 -3 -3 -3 -3 -3 -3 -4 -4 -4 -4 -4 -4 -4 -4 -4 -4 -5 -5 -5 -5 -5 -5 -5 -5 -5 -5 -4 -4 -4 -4
-1 -1 -2 -1 -1 -2 -2 -2 -2 -3 -3 -3 -3 -3 -3 -3 -3 -3 -4 -4 -4 -4 -4 -4 -4 -4 -5 -5 -5 -5 -5 -5 -5 -5 -5 -5 -5 -5 -5 -5 -5 -4 -4 -4
-1 -2 -2 -2 -2 -2 -2 -3 -3 -3 -3 -3 -3 -3 -3 -4 -4 -4 -4 -4 -4 -4 -4 -4 -4 -5 -5 -5 -5 -5 -5 -5 -5 -5 -5 -5 -5 -5 -5 -5 -5 -5 -5 -4
-2 -2 -3 -3 -3 -3 -3 -3 -3 -3 -3 -3 -4 -4 -4 -4 -4 -4 -4 -4 -4 -4 -5 -5 -5 -5 -5 -5 -5 -5 -5 -5 -5 -5 -6 -6 -6 -6 -5 -5 -5 -5 -5 -5
-3 -3 -3 -3 -3 -3 -3 -3 -3 -3 -4 -4 -4 -4 -4 -4 -4 -4 -4 -4 -5 -5 -5 -5 -5 -5 -5 -5 -5 -5 -6 -6 -6 -6 -6 -6 -6 -6 -6 -5 -5 -5 -5 -5
-3 -3 -3 -3 -3 -3 -3 -4 -4 -4 -4 -4 -4 -4 -5 -5 -5 -5 -5 -5 -5 -5 -5 -5 -5 -5 -6 -6 -6 -6 -6 -6 -6 -6 -6 -6 -6 -6 -6 -5 -5 -5 -5 -5
-3 -3 -3 -3 -3 -4 -4 -4 -4 -4 -4 -4 -5 -5 -5 -5 -5 -5 -5 -5 -5 -5 -5 -5 -5 -6 -6 -6 -6 -6 -6 -6 -6 -6 -6 -6 -6 -6 -6 -5 -5 -5 -5 -5
-3 -3 -3 -4 -4 -4 -4 -4 -4 -4 -4 -5 -5 -5 -5 -5 -5 -5 -5 -5 -5 -5 -5 -6 -6 -6 -6 -6 -6 -6 -6 -6 -6 -6 -6 -6 -6 -6 -6 -6 -6 -6 -6 -5
-3 -3 -4 -4 -4 -4 -4 -4 -4 -4 -5 -5 -5 -5 -5 -5 -6 -6 -6 -5 -5 -6 -6 -6 -6 -6 -6 -6 -6 -6 -6 -6 -6 -6 -6 -6 -6 -6 -6 -6 -6 -6 -6 -6
-3 -4 -4 -4 -4 -4 -4 -4 -4 -5 -5 -5 -5 -5 -5 -6 -6 -6 -6 -6 -6 -6 -6 -6 -6 -6 -6 -6 -6 -6 -6 -6 -6 -6 -6 -6 -6 -6 -6 -6 -6 -6 -6 -6
-3 -4 -4 -4 -4 -4 -4 -5 -5 -5 -5 -5 -5 -5 -6 -6 -6 -6 -6 -6 -6 -6 -6 -6 -6 -6 -6 -6 -6 -6 -6 -6 -6 -6 -6 -6 -6 -6 -6 -6 -6 -6 -6 -6
-4 -4 -4 -4 -5 -5 -5 -5 -5 -5 -5 -5 -5 -6 -6 -6 -6 -6 -6 -6 -6 -6 -6 -6 -6 -6 -6 -6 -6 -6 -6 -7 -7 -7 -7 -7 -7 -6 -6 -6 -6 -6 -6 -6
-4 -4 -4 -5 -5 -5 -5 -5 -5 -5 -5 -5 -6 -6 -6 -6 -6 -6 -6 -6 -6 -6 -6 -6 -6 -6 -6 -6 -6 -7 -7 -7 -7 -7 -7 -7 -7 -7 -7 -7 -6 -6 -6 -6
-4 -4 -5 -5 -5 -5 -5 -5 -5 -5 -6 -6 -6 -6 -6 -6 -7 -7 -7 -7 -7 -7 -7 -7 -7 -7 -7 -7 -7 -7 -7 -7 -7 -7 -7 -7 -7 -7 -7 -7 -6 -6 -6 -6
-4 -5 -5 -5 -5 -5 -5 -5 -6 -6 -6 -6 -6 -6 -7 -7 -7 -7 -7 -7 -7 -7 -7 -7 -7 -7 -7 -7 -7 -7 -7 -7 -7 -7 -7 -7 -7 -7 -7 -7 -7 -6 -6 -6
Wind_Speed
6 6 4 6 7 7 9 9 9 9 10 13 9 8 7 6 6 6 5 5 5 5 5 6 6 6 6 6 5 5 4 4 4 4 4 3 4 4 3 3 2 1 2 2
4 4 5 8 10 10 11 9 11 12 14 10 7 5 6 6 6 6 6 6 6 6 6 6 6 6 6 6 5 5 4 4 4 4 4 4 4 4 3 3 2 1 1 2
4 4 4 8 9 11 8 8 8 12 12 6 7 7 7 7 6 6 7 7 7 6 6 6 6 5 6 5 5 4 4 4 4 4 4 4 4 4 4 3 2 2 1 1
2 2 6 7 3 6 8 9 9 9 8 7 8 8 6 6 5 6 6 6 6 6 6 6 5 5 5 4 4 4 4 4 4 4 4 4 4 4 4 3 2 2 2 2
2 3 9 8 3 4 5 7 7 9 9 7 4 5 5 4 3 4 5 5 5 5 5 5 5 4 4 3 3 4 4 4 4 4 4 4 4 4 3 3 3 2 2 2
3 3 6 6 1 2 3 6 4 6 6 4 1 3 5 3 4 5 5 4 4 4 4 4 5 4 3 3 3 4 4 4 4 3 3 4 4 3 3 2 3 3 3 2
6 6 9 6 2 4 3 6 3 3 4 4 5 6 6 6 5 4 4 4 4 3 3 4 4 3 2 3 3 4 4 4 4 4 3 3 3 2 2 3 3 3 3 3
5 6 9 4 5 6 6 2 1 2 3 5 5 5 5 5 5 4 4 4 3 3 4 4 3 3 2 3 4 3 3 3 4 4 4 3 3 3 2 2 2 2 3 3
9 9 4 5 6 5 2 3 3 3 4 4 4 5 5 5 4 4 4 3 3 3 4 4 4 2 2 4 3 3 3 3 3 4 4 4 3 3 2 2 2 2 2 3
7 10 7 7 7 6 5 5 5 4 4 4 5 5 5 5 4 4 3 3 3 3 4 5 4 3 3 3 2 2 2 3 3 3 4 4 3 3 2 2 2 2 2 3
8 8 7 6 7 7 6 4 4 4 4 5 5 5 5 4 4 4 3 3 3 3 4 5 5 3 3 2 1 2 2 2 3 3 3 3 3 3 3 2 2 2 2 2
9 6 6 6 4 3 4 5 5 5 4 4 5 5 5 5 4 3 3 3 3 4 4 5 4 3 2 2 1 1 2 2 2 2 2 2 3 4 6 5 6 6 5 5
7 3 5 5 4 3 4 5 4 5 5 5 4 4 4 4 3 3 3 3 4 4 4 4 3 3 2 2 1 1 1 2 2 2 2 2 2 3 4 5 7 7 8 8
5 2 4 4 4 3 3 3 2 3 3 4 4 3 3 3 3 3 4 4 3 3 3 3 2 3 2 1 1 1 1 2 2 1 1 2 2 2 2 3 4 4 6 8
6 6 6 4 3 2 2 1 2 3 3 3 2 3 3 3 3 4 3 3 2 3 3 2 2 3 2 1 1 1 1 1 1 1 1 1 2 2 2 3 3 3 4 5
4 4 4 4 4 3 2 2 3 4 4 4 3 3 3 3 3 3 3 2 2 3 3 3 3 2 1 1 1 1 1 2 3 2 1 2 2 2 2 2 3 3 4 4
3 4 5 5 5 5 4 4 5 5 4 4 4 3 2 2 2 2 3 2 2 3 3 3 2 2 1 0 0 1 1 2 3 2 1 1 1 2 2 2 2 3 3 4
8 7 6 6 6 6 5 5 5 4 4 4 3 2 2 3 3 3 3 2 2 2 2 2 1 1 0 0 0 0 0 1 1 1 1 1 2 2 2 2 2 3 3 4
5 5 5 5 5 5 5 5 4 4 3 3 3 3 3 3 3 3 2 2 2 3 2 1 1 1 0 0 1 1 1 1 1 1 1 2 2 2 2 2 2 3 3 3
4 3 3 3 3 4 4 4 3 3 3 3 3 2 3 3 3 2 2 2 3 3 2 2 1 1 0 0 1 1 1 1 1 1 1 1 1 2 2 2 2 2 3 3
3 3 3 3 3 3 3 3 3 3 3 3 3 4 3 3 2 2 2 2 3 2 2 1 0 1 1 1 1 1 1 1 1 1 1 1 1 2 2 2 2 2 2 3
3 3 3 2 2 2 2 2 3 3 3 3 3 3 3 3 2 2 3 3 2 2 0 1 1 1 1 1 1 1 1 1 0 0 1 1 1 1 2 2 2 2 2 2
2 2 2 2 2 2 1 1 2 3 3 3 3 3 3 3 2 2 2 2 2 2 0 1 1 1 1 2 2 1 1 0 0 0 0 0 1 1 1 2 2 2 2 2
2 2 2 1 1 1 1 2 2 2 3 3 3 3 3 2 2 2 2 2 2 1 1 2 2 1 2 2 1 1 1 0 0 0 0 0 1 1 1 1 2 2 2 2
2 2 2 2 2 2 2 2 1 1 1 1 2 2 2 2 2 2 1 1 2 1 1 1 2 2 2 2 1 1 0 0 0 0 0 0 1 1 1 1 2 2 2 2
2 2 2 3 3 2 2 2 2 2 2 1 1 1 1 1 1 1 1 1 1 1 1 1 1 1 1 1 1 1 0 0 1 1 1 1 1 1 1 2 2 2 2 2
2 1 1 1 1 1 2 2 2 2 2 2 2 1 1 1 1 1 1 1 1 1 1 1 1 1 1 1 1 0 0 0 0 0 1 1 1 1 1 2 2 2 2 2
Wind_Direction
254 257 243 244 245 215 212 218 228 252 257 272 285 288 291 294 298 304 308 307 306 309 312 315 320 324 326 321 322 325 328 322 310 307 313 321 325 316 311 305 297 286 285 280
279 258 255 265 253 235 235 235 242 262 270 272 284 288 292 293 292 295 300 303 307 313 316 315 317 320 323 319 323 328 324 317 318 324 327 326 326 324 322 314 308 296 283 288
274 310 319 272 241 218 220 218 212 239 255 291 300 292 283 282 282 281 290 299 302 305 306 306 310 314 314 313 321 325 322 326 328 327 327 329 330 327 324 316 319 311 299 289
281 11 252 252 218 205 221 242 228 244 263 268 270 280 274 267 265 281 293 298 299 301 303 307 309 314 315 316 322 324 326 330 330 328 327 329 326 327 329 332 332 326 315 303
177 259 277 286 250 184 202 263 231 236 260 277 298 310 289 259 257 267 278 289 291 293 295 303 309 315 322 324 329 332 332 331 328 325 325 328 327 328 325 331 336 329 315 310
172 225 253 260 244 158 121 283 248 219 248 268 350 307 283 296 305 302 304 299 300 305 308 310 313 321 326 326 335 330 326 326 329 328 325 322 318 321 329 335 334 332 333 333
209 236 263 257 192 131 166 262 276 212 239 219 214 236 275 304 306 303 306 307 312 313 312 308 313 324 324 327 321 318 329 338 342 339 328 321 328 332 337 343 345 342 345 338
188 224 256 201 147 190 226 266 247 240 243 234 246 273 292 297 299 307 315 320 322 322 316 318 319 319 311 309 311 325 340 348 347 342 338 341 346 339 337 350 0 357 358 347
201 222 248 188 208 227 223 242 243 243 255 243 256 269 283 291 292 299 304 311 322 319 316 320 321 313 292 302 319 337 351 351 345 345 344 342 340 335 336 345 358 351 355 350
250 260 255 246 248 253 241 238 248 244 251 242 251 264 274 286 292 298 303 309 317 318 313 313 318 315 290 304 329 350 347 343 348 350 345 345 343 340 340 339 341 341 350 347
249 267 289 269 239 244 243 242 259 264 249 245 247 261 261 273 279 280 290 298 299 295 296 301 308 309 310 318 346 356 344 347 348 346 341 345 349 344 339 326 321 329 323 322
233 230 220 255 255 232 231 243 244 251 263 261 244 253 260 264 269 270 275 287 292 294 294 298 303 306 313 320 331 354 343 344 339 336 343 351 354 359 0 358 357 0 358 350
234 240 231 255 267 244 238 251 251 243 246 264 264 252 254 262 268 270 273 276 278 282 290 295 302 306 310 317 317 322 309 318 325 335 342 343 349 360 355 360 5 11 11 6
228 220 249 240 247 249 243 257 264 266 263 258 258 259 256 260 266 267 268 274 282 286 291 293 304 305 305 313 321 332 315 319 332 321 325 329 338 345 345 348 351 357 2 6
228 222 235 248 249 252 244 240 267 279 282 284 268 259 253 252 258 270 278 283 295 294 295 301 305 306 319 331 344 333 328 326 334 337 343 345 348 351 353 351 357 350 351 359
248 236 226 228 240 247 253 249 260 272 274 277 282 273 266 260 265 275 277 270 270 283 288 294 294 301 322 346 358 347 336 347 359 3 4 3 360 0 2 359 0 356 351 347
209 229 225 232 240 246 247 246 246 256 261 266 273 278 278 279 284 281 282 280 275 275 275 272 279 298 313 345 359 340 352 352 1 8 3 356 354 357 358 357 357 350 343 345
215 221 218 221 229 239 249 250 247 246 247 252 263 259 248 246 256 268 280 299 312 309 290 265 263 280 342 22 30 44 24 3 1 -0 0 356 357 3 3 3 0 353 348 353
217 220 222 223 222 220 231 240 242 236 236 230 229 242 250 251 253 258 264 274 281 289 292 284 294 35 42 346 30 98 64 31 16 8 7 7 15 13 8 5 359 353 353 358
215 212 216 224 219 213 226 234 228 226 225 211 216 234 251 253 245 240 237 252 256 252 256 259 223 135 141 205 30 99 93 65 45 24 23 21 14 7 3 3 360 356 357 358
216 214 213 218 230 234 223 216 209 219 223 209 212 226 240 250 241 221 224 265 282 265 249 246 143 176 185 170 74 95 109 94 64 41 34 21 12 6 3 5 358 350 353 354
215 211 216 215 218 247 248 215 204 207 214 219 222 224 227 237 236 237 239 237 251 259 238 189 208 209 187 124 105 114 109 85 51 40 32 17 8 3 357 354 347 343 345 347
218 215 210 211 215 231 255 228 210 205 211 217 218 221 223 227 222 220 256 248 228 232 193 209 236 212 154 110 119 124 119 114 145 313 329 320 323 330 333 335 336 336 338 342
207 210 210 202 172 174 228 246 236 224 221 229 227 220 213 221 242 234 229 241 234 232 194 226 221 178 116 106 116 116 124 155 272 279 295 317 329 334 331 326 327 327 328 331
193 189 181 176 197 224 229 218 216 228 230 240 247 237 221 209 212 218 203 209 207 168 128 205 179 131 104 118 130 137 161 226 241 208 232 308 320 325 325 321 317 316 320 323
186 198 212 220 223 223 205 186 199 216 208 226 254 236 213 193 171 158 153 162 169 144 114 112 123 115 112 131 139 149 174 252 342 353 309 296 300 313 315 313 309 310 314 318
180 187 195 229 233 208 196 195 205 216 208 204 218 214 189 164 141 135 132 121 110 108 103 89 95 120 127 132 137 151 157 175 232 274 281 278 282 288 297 304 311 318 322 327
Height
1493 1491 1491 1489 1487 1488 1489 1486 1485 1475 1472 1462 1460 1459 1457 1456 1454 1452 1450 1449 1447 1445 1443 1441 1439 1437 1435 1433 1431 1429 1427 1425 1423 1422 1420 1419 1418 1417 1415 1414 1413 1413 1413 1412
1491 1488 1489 1486 1481 1481 1481 1480 1478 1473 1466 1458 1458 1457 1455 1453 1452 1450 1448 1446 1445 1443 1441 1439 1437 1435 1433 1430 1429 1427 1424 1422 1421 1420 1418 1417 1415 1414 1413 1412 1411 1410 1410 1409
1491 1490 1486 1480 1471 1472 1473 1470 1469 1467 1460 1456 1456 1454 1453 1451 1449 1448 1446 1445 1443 1441 1439 1437 1435 1433 1431 1429 1426 1424 1422 1420 1419 1418 1416 1415 1413 1412 1410 1409 1408 1408 1407 1407
1496 1493 1485 1467 1463 1463 1464 1462 1462 1459 1456 1455 1454 1451 1450 1448 1447 1445 1444 1443 1441 1439 1437 1435 1433 1431 1429 1427 1424 1422 1420 1419 1417 1416 1414 1413 1412 1410 1408 1407 1406 1405 1404 1404
1497 1494 1480 1465 1461 1462 1463 1460 1455 1455 1453 1452 1451 1449 1447 1446 1445 1444 1442 1440 1438 1437 1435 1433 1431 1429 1427 1425 1422 1420 1419 1417 1416 1414 1413 1411 1410 1408 1407 1406 1405 1404 1403 1402
1496 1490 1478 1461 1458 1457 1461 1458 1450 1450 1450 1450 1450 1451 1446 1443 1442 1440 1439 1437 1435 1434 1432 1430 1428 1427 1425 1423 1421 1419 1417 1416 1415 1413 1411 1410 1408 1407 1405 1404 1403 1402 1401 1401
1490 1487 1471 1458 1456 1458 1462 1454 1448 1447 1447 1447 1448 1447 1444 1441 1439 1438 1436 1434 1433 1431 1430 1428 1426 1425 1423 1421 1419 1418 1416 1415 1413 1412 1410 1409 1407 1406 1404 1403 1402 1401 1400 1399
1486 1484 1468 1454 1455 1456 1451 1447 1446 1445 1445 1445 1443 1442 1440 1438 1437 1435 1433 1432 1430 1429 1427 1426 1425 1423 1421 1419 1418 1417 1415 1413 1412 1410 1409 1407 1406 1405 1403 1402 1400 1399 1399 1398
1468 1460 1450 1449 1448 1447 1446 1445 1444 1443 1443 1442 1440 1439 1437 1436 1434 1433 1431 1430 1428 1427 1425 1424 1423 1421 1419 1418 1417 1415 1414 1412 1411 1409 1408 1406 1405 1404 1402 1401 1399 1398 1398 1397
1461 1450 1446 1445 1444 1443 1443 1442 1441 1441 1440 1439 1437 1436 1435 1433 1432 1430 1429 1428 1426 1425 1423 1422 1421 1419 1418 1416 1415 1414 1412 1411 1409 1408 1407 1405 1404 1403 1401 1400 1399 1398 1397 1396
1454 1446 1443 1440 1439 1439 1439 1439 1438 1438 1437 1436 1434 1433 1432 1430 1429 1428 1427 1426 1424 1423 1422 1420 1419 1418 1416 1415 1414 1412 1411 1410 1409 1407 1406 1404 1403 1402 1401 1400 1399 1398 1397 1396
1443 1438 1439 1436 1436 1436 1436 1435 1435 1434 1433 1433 1432 1430 1429 1428 1427 1426 1424 1423 1422 1421 1420 1418 1417 1416 1415 1414 1413 1411 1410 1409 1408 1406 1405 1404 1402 1401 1401 1400 1399 1398 1397 1396
1434 1434 1434 1433 1433 1433 1432 1432 1432 1431 1430 1429 1428 1427 1426 1425 1424 1423 1422 1421 1420 1419 1418 1417 1415 1414 1413 1412 1411 1410 1409 1408 1407 1405 1404 1403 1402 1400 1399 1399 1398 1397 1396 1396
1430 1431 1430 1429 1430 1430 1429 1429 1428 1427 1427 1426 1425 1424 1423 1422 1421 1420 1419 1419 1418 1417 1416 1415 1414 1413 1412 1411 1410 1409 1408 1407 1406 1405 1404 1403 1402 1400 1399 1398 1397 1396 1396 1395
1425 1426 1426 1426 1426 1426 1426 1425 1424 1424 1423 1422 1422 1421 1420 1419 1418 1418 1417 1417 1416 1415 1414 1414 1413 1412 1411 1410 1409 1408 1407 1406 1405 1404 1403 1402 1401 1400 1399 1398 1397 1396 1396 1395
1421 1421 1422 1422 1422 1422 1422 1421 1421 1420 1420 1419 1419 1418 1418 1417 1416 1416 1415 1414 1414 1413 1412 1412 1411 1410 1409 1409 1408 1407 1406 1406 1405 1404 1403 1402 1401 1400 1400 1399 1398 1397 1396 1395
1417 1416 1416 1417 1417 1418 1418 1418 1418 1418 1417 1417 1416 1416 1415 1415 1414 1414 1413 1413 1412 1412 1411 1410 1410 1409 1409 1408 1407 1407 1406 1405 1405 1404 1403 1402 1401 1401 1400 1399 1398 1397 1397 1396
1412 1412 1413 1413 1414 1414 1414 1415 1415 1415 1414 1414 1414 1413 1413 1412 1412 1411 1411 1411 1410 1410 1410 1409 1409 1408 1408 1407 1407 1406 1406 1405 1404 1404 1403 1402 1401 1401 1400 1400 1399 1398 1397 1396
1407 1409 1409 1410 1411 1411 1411 1411 1411 1412 1411 1411 1411 1410 1410 1410 1410 1410 1409 1409 1409 1408 1409 1408 1408 1408 1407 1407 1406 1406 1405 1405 1404 1403 1403 1402 1402 1401 1400 1400 1399 1398 1397 1396
1405 1406 1406 1407 1408 1408 1408 1408 1408 1409 1409 1408 1408 1408 1408 1408 1408 1408 1408 1407 1407 1407 1407 1407 1407 1407 1406 1406 1406 1405 1405 1404 1403 1403 1403 1402 1402 1401 1401 1400 1400 1399 1398 1397
1402 1402 1403 1404 1405 1405 1406 1406 1406 1406 1406 1406 1406 1405 1405 1405 1406 1406 1405 1405 1406 1406 1406 1406 1406 1406 1405 1405 1405 1405 1404 1404 1403 1403 1402 1402 1402 1401 1401 1400 1400 1399 1398 1398
1400 1400 1401 1401 1402 1403 1403 1403 1403 1403 1404 1403 1403 1403 1403 1403 1403 1404 1404 1404 1404 1404 1404 1405 1405 1405 1405 1405 1405 1404 1404 1404 1403 1403 1402 1402 1402 1401 1401 1400 1400 1400 1399 1398
1398 1399 1399 1399 1400 1401 1401 1401 1401 1401 1401 1401 1401 1401 1401 1401 1401 1402 1402 1402 1402 1403 1403 1403 1404 1404 1404 1404 1404 1404 1404 1403 1403 1403 1402 1402 1402 1401 1401 1401 1400 1400 1399 1398
1396 1397 1397 1398 1399 1399 1399 1399 1399 1399 1399 1399 1399 1399 1399 1399 1399 1400 1400 1400 1401 1401 1401 1402 1402 1403 1403 1403 1403 1403 1403 1403 1403 1402 1402 1402 1402 1401 1401 1401 1400 1400 1399 1399
1394 1395 1396 1396 1396 1397 1397 1397 1397 1397 1397 1397 1397 1397 1398 1398 1398 1398 1398 1399 1399 1400 1400 1400 1401 1401 1402 1402 1402 1403 1403 1402 1402 1402 1402 1402 1401 1401 1401 1401 1400 1400 1399 1399
1393 1393 1394 1395 1395 1395 1395 1395 1395 1395 1395 1395 1395 1396 1396 1396 1396 1397 1397 1397 1398 1398 1399 1399 1399 1400 1401 1401 1401 1402 1402 1402 1402 1402 1402 1401 1401 1401 1400 1400 1400 1400 1399 1399
1391 1392 1392 1393 1393 1393 1393 1393 1393 1393 1393 1393 1393 1394 1394 1394 1395 1395 1396 1396 1396 1397 1398 1398 1398 1399 1399 1400 1400 1400 1401 1401 1401 1401 1401 1401 1400 1400 1400 1400 1399 1399 1399 1399